Weather History for Mammoth, CA

Change the Weather History Date:

Saturday, July 20, 2013

  Actual Average Record
Temperature  
Mean Temperature 75 °F -  
Max Temperature 95 °F 76 °F 95 °F (2013)
Min Temperature 55 °F 63 °F 39 °F (2012)
Cooling Degree Days 10    
Growing Degree Days 25 (Base 50)    
Moisture  
Dew Point 33 °F    
Average Humidity 24    
Maximum Humidity 47    
Minimum Humidity 9    
Precipitation  
Precipitation 0.00 in - - ()
Sea Level Pressure  
Sea Level Pressure 30.22 in    
Wind  
Wind Speed 4 mph (WNW)    
Max Wind Speed 17 mph    
Max Gust Speed 24 mph    
Visibility 10 miles    
Events Rain    
Averages and records for this station are not official NWS values.
T = Trace of Precipitation, MM = Missing Value Source: NWS Daily Summary

Daily Weather History Graph

Daily Weather History Graph

Search for Another Location

Airport:

Trip Planner

Search our weather history database for the weather conditions in past years. The results will help you decide how hot, cold, wet, or windy it might be!

Date:

Astronomy

Jul. 20, 2013 Rise Set
Actual Time 5:49 AM PDT 8:13 PM PDT
Civil Twilight 5:19 AM PDT 8:43 PM PDT
Nautical Twilight 4:42 AM PDT 9:20 PM PDT
Astronomical Twilight 4:02 AM PDT 10:00 PM PDT
Moon 6:21 PM PDT 3:34 AM PDT
Length of Visible Light 15h 23m
Length of Day
14h 23m
Waxing Gibbous, 94% of the Moon is Illuminated
Jul 20
Waxing Gibbous
Jul 22
Full
Jul 29
Last Quarter
Aug 6
New
Aug 14
First Quarter

Hourly Weather History & Observations

Time (PDT) Temp. Dew Point Humidity Pressure Visibility Wind Dir Wind Speed Gust Speed Precip Events Conditions
12:15 AM 68.0 °F 33.8 °F 28% 30.25 in 10.0 mi Calm Calm - N/A   Clear
12:35 AM 68.0 °F 35.6 °F 30% 30.25 in 10.0 mi West 4.6 mph - N/A   Clear
12:55 AM 66.2 °F 33.8 °F 30% 30.25 in 10.0 mi Calm Calm - N/A   Clear
1:15 AM 66.2 °F 33.8 °F 30% 30.25 in 10.0 mi Calm Calm - N/A   Clear
1:35 AM 66.2 °F 35.6 °F 32% 30.25 in 10.0 mi West 10.4 mph - N/A   Clear
1:55 AM 66.2 °F 35.6 °F 32% 30.25 in 10.0 mi West 8.1 mph - N/A   Clear
2:15 AM 66.2 °F 35.6 °F 32% 30.25 in 10.0 mi Calm Calm - N/A   Clear
2:35 AM 64.4 °F 35.6 °F 34% 30.24 in 10.0 mi West 4.6 mph - N/A   Clear
2:55 AM 62.6 °F 35.6 °F 37% 30.24 in 10.0 mi Calm Calm - N/A   Clear
3:15 AM 62.6 °F 35.6 °F 37% 30.24 in 10.0 mi NNW 3.5 mph - N/A   Clear
3:35 AM 62.6 °F 35.6 °F 37% 30.24 in 10.0 mi Calm Calm - N/A   Clear
3:55 AM 60.8 °F 33.8 °F 36% 30.24 in 10.0 mi NNW 3.5 mph - N/A   Clear
4:15 AM 60.8 °F 35.6 °F 39% 30.24 in 10.0 mi North 3.5 mph - N/A   Clear
4:35 AM 59.0 °F 35.6 °F 42% 30.24 in 10.0 mi North 4.6 mph - N/A   Clear
4:55 AM 59.0 °F 35.6 °F 42% 30.24 in 10.0 mi NW 3.5 mph - N/A   Clear
5:15 AM 59.0 °F 35.6 °F 42% 30.24 in 10.0 mi WNW 4.6 mph - N/A   Clear
5:35 AM 59.0 °F 35.6 °F 42% 30.24 in 10.0 mi Calm Calm - N/A   Clear
5:55 AM 57.2 °F 33.8 °F 41% 30.24 in 10.0 mi NNW 4.6 mph - N/A   Clear
6:15 AM 55.4 °F 35.6 °F 47% 30.24 in 10.0 mi West 4.6 mph - N/A   Clear
6:35 AM 57.2 °F 33.8 °F 41% 30.25 in 10.0 mi NW 3.5 mph - N/A   Clear
6:55 AM 57.2 °F 35.6 °F 44% 30.25 in 10.0 mi NNW 3.5 mph - N/A   Clear
7:15 AM 59.0 °F 35.6 °F 42% 30.25 in 10.0 mi NNW 3.5 mph - N/A   Clear
7:35 AM 62.6 °F 35.6 °F 37% 30.26 in 10.0 mi Calm Calm - N/A   Clear
7:55 AM 66.2 °F 37.4 °F 35% 30.26 in 10.0 mi SE 3.5 mph - N/A   Clear
8:15 AM 69.8 °F 37.4 °F 31% 30.26 in 10.0 mi SSE 5.8 mph - N/A   Clear
8:35 AM 71.6 °F 37.4 °F 29% 30.26 in 10.0 mi SE 4.6 mph - N/A   Clear
8:55 AM 75.2 °F 37.4 °F 25% 30.26 in 10.0 mi SE 5.8 mph - N/A   Clear
9:35 AM 80.6 °F 37.4 °F 21% 30.25 in 10.0 mi SE 3.5 mph - N/A   Clear
9:55 AM 82.4 °F 35.6 °F 19% 30.25 in 10.0 mi SE 3.5 mph - N/A   Clear
10:15 AM 84.2 °F 28.4 °F 13% 30.25 in 10.0 mi ESE 3.5 mph - N/A   Clear
10:35 AM 86.0 °F 28.4 °F 12% 30.24 in 10.0 mi ESE 3.5 mph - N/A   Clear
10:55 AM 86.0 °F 28.4 °F 12% 30.24 in 10.0 mi South 4.6 mph - N/A   Clear
11:15 AM 86.0 °F 28.4 °F 12% 30.24 in 10.0 mi Calm Calm - N/A   Clear
11:35 AM 89.6 °F 30.2 °F 12% 30.24 in 10.0 mi ESE 8.1 mph - N/A   Clear
11:55 AM 89.6 °F 30.2 °F 12% 30.23 in 10.0 mi East 9.2 mph - N/A   Clear
12:15 PM 91.4 °F 28.4 °F 10% 30.22 in 10.0 mi ENE 3.5 mph - N/A   Clear
12:35 PM 91.4 °F 28.4 °F 10% 30.22 in 10.0 mi SE 8.1 mph - N/A   Clear
12:55 PM 91.4 °F 28.4 °F 10% 30.21 in 10.0 mi East 4.6 mph - N/A   Clear
1:15 PM 91.4 °F 30.2 °F 11% 30.20 in 10.0 mi SE 5.8 mph - N/A   Clear
1:35 PM 93.2 °F 30.2 °F 11% 30.19 in 10.0 mi NNE 5.8 mph - N/A   Clear
1:55 PM 93.2 °F 30.2 °F 11% 30.19 in 10.0 mi SSE 10.4 mph 17.3 mph N/A   Clear
2:15 PM 95.0 °F 30.2 °F 10% 30.18 in 10.0 mi SE 12.7 mph 19.6 mph N/A   Clear
2:35 PM 93.2 °F 28.4 °F 10% 30.18 in 10.0 mi ESE 10.4 mph 16.1 mph N/A   Clear
2:55 PM 95.0 °F 28.4 °F 9% 30.18 in 10.0 mi ESE 12.7 mph 24.2 mph N/A   Clear
3:15 PM 93.2 °F 28.4 °F 10% 30.17 in 10.0 mi NNE 3.5 mph - N/A   Clear
3:35 PM 89.6 °F 26.6 °F 10% 30.16 in 10.0 mi ENE 5.8 mph - N/A   Clear
3:55 PM 89.6 °F 28.4 °F 11% 30.16 in 10.0 mi North 8.1 mph - N/A   Clear
4:15 PM 87.8 °F 28.4 °F 12% 30.16 in 10.0 mi NW 8.1 mph - N/A   Clear
4:35 PM 87.8 °F 28.4 °F 12% 30.16 in 10.0 mi WNW 13.8 mph 17.3 mph N/A   Clear
4:55 PM 86.0 °F 28.4 °F 12% 30.18 in 10.0 mi North 11.5 mph - N/A   Mostly Cloudy
5:15 PM 84.2 °F 33.8 °F 16% 30.17 in 10.0 mi West 13.8 mph - N/A Rain Light Rain
5:35 PM 82.4 °F 32.0 °F 16% 30.18 in 10.0 mi ESE 4.6 mph 24.2 mph N/A   Overcast
5:55 PM 80.6 °F 35.6 °F 20% 30.18 in 10.0 mi SSE 9.2 mph - N/A   Scattered Clouds
6:15 PM 80.6 °F 32.0 °F 17% 30.18 in 10.0 mi South 12.7 mph 23.0 mph N/A   Mostly Cloudy
6:35 PM 82.4 °F 30.2 °F 15% 30.18 in 10.0 mi SSW 17.3 mph 24.2 mph N/A   Overcast
6:55 PM 80.6 °F 30.2 °F 16% 30.18 in 10.0 mi West 12.7 mph - N/A   Mostly Cloudy
7:15 PM 80.6 °F 33.8 °F 18% 30.19 in 10.0 mi NW 8.1 mph - N/A   Scattered Clouds
7:35 PM 78.8 °F 35.6 °F 21% 30.19 in 10.0 mi WNW 12.7 mph 18.4 mph N/A   Scattered Clouds
7:55 PM 78.8 °F 37.4 °F 23% 30.19 in 10.0 mi West 15.0 mph 19.6 mph N/A   Scattered Clouds
8:15 PM 77.0 °F 35.6 °F 22% 30.18 in 10.0 mi West 5.8 mph 16.1 mph N/A   Clear
9:15 PM 71.6 °F 35.6 °F 27% 30.20 in 10.0 mi Calm Calm - N/A   Clear
9:35 PM 71.6 °F 33.8 °F 25% 30.21 in 10.0 mi Calm Calm - N/A   Clear
10:55 PM 64.4 °F 35.6 °F 34% 30.22 in 10.0 mi West 5.8 mph - N/A   Clear